This is the latest recevied weather packets stored in our database for station/object WE0DX-1. If no packets are shown the sender has not sent any weather packets the latest 10 day(s).
| Time | Temp. | Humidity | Pressure | Rain* | Wind** | Luminosity | Snow |
|---|---|---|---|---|---|---|---|
| 1777485837 | 15° C | 52% | 1020 hPa | 0 mm | - | 570 W/m² | - |
| 1777485533 | 14.44° C | 57% | 1020.1 hPa | 0 mm | - | 655 W/m² | - |
| 1777485229 | 14.44° C | 56% | 1019.9 hPa | 0 mm | - | 503 W/m² | - |
| 1777484925 | 14.44° C | 57% | 1020 hPa | 0 mm | - | 521 W/m² | - |
| 1777484623 | 13.89° C | 58% | 1020.2 hPa | 0 mm | - | 595 W/m² | - |
| 1777484319 | 13.89° C | 57% | 1020.1 hPa | 0 mm | - | 418 W/m² | - |
| 1777484015 | 13.89° C | 57% | 1020.4 hPa | 0 mm | - | 486 W/m² | - |
| 1777483712 | 13.89° C | 59% | 1020.1 hPa | 0 mm | - | 555 W/m² | - |
| 1777483407 | 13.89° C | 60% | 1020.3 hPa | 0 mm | - | 496 W/m² | - |
| 1777483102 | 13.89° C | 58% | 1020.2 hPa | 0 mm | - | 524 W/m² | - |
| 1777482800 | 13.89° C | 59% | 1020.2 hPa | 0 mm | - | 465 W/m² | - |
| 1777482495 | 13.89° C | 58% | 1020.2 hPa | 0 mm | - | 718 W/m² | - |
| 1777482193 | 13.89° C | 59% | 1020.5 hPa | 0 mm | - | 720 W/m² | - |
| 1777481890 | 13.89° C | 60% | 1020.6 hPa | 0 mm | - | 774 W/m² | - |
| 1777481588 | 13.89° C | 60% | 1020.6 hPa | 0 mm | - | 767 W/m² | - |
| 1777481285 | 13.33° C | 62% | 1020.5 hPa | 0 mm | - | 774 W/m² | - |
| 1777480981 | 13.33° C | 60% | 1020.6 hPa | 0 mm | - | 825 W/m² | - |
| 1777480678 | 13.89° C | 61% | 1020.4 hPa | 0 mm | - | 783 W/m² | - |
| 1777480375 | 13.33° C | 61% | 1020.4 hPa | 0 mm | - | 864 W/m² | - |
| 1777480070 | 13.89° C | 61% | 1020.7 hPa | 0 mm | - | 842 W/m² | - |
| 1777479767 | 13.33° C | 63% | 1020.8 hPa | 0 mm | - | 770 W/m² | - |
| 1777479465 | 13.33° C | 61% | 1020.6 hPa | 0 mm | - | 555 W/m² | - |
| 1777479161 | 13.33° C | 63% | 1020.4 hPa | 0 mm | - | 576 W/m² | - |
| 1777478858 | 12.78° C | 63% | 1020.3 hPa | 0 mm | - | 739 W/m² | - |
| 1777478554 | 13.33° C | 63% | 1020.4 hPa | 0 mm | - | 640 W/m² | - |
* Rain latest hour (hover to see other rain measurements)
** Current wind speed in m/s (hover to see current wind gust speed)